Laurinburg-Maxton, NC

6:33 PM EDT on May 24, 2017 (GMT -0400)
Laurinburg-Maxton

Weather History for KMEB - September, 2013

Change the Weather History Date:

Thursday, September 19, 2013

  Actual Average (KHFF) Record (KHFF)
Temperature  
Mean Temperature 66 °F -  
Max Temperature 80 °F 78 °F 91 °F (2010)
Min Temperature 52 °F 60 °F 46 °F (2001)
Growing Degree Days 16 (Base 50)    
Moisture  
Dew Point 55 °F    
Average Humidity 72    
Maximum Humidity 93    
Minimum Humidity 42    
Precipitation  
Precipitation 0.00 in - - ()
Sea Level Pressure  
Sea Level Pressure 30.15 in    
Wind  
Wind Speed 1 mph (NNE)    
Max Wind Speed 6 mph    
Max Gust Speed -    
Visibility 10 miles    
Events      
Averages and records for this station are not official NWS values.
T = Trace of Precipitation, MM = Missing Value Source: NWS Daily Summary

Daily Weather History Graph

Daily Weather History Graph

Search for Another Location

Airport or City:

Trip Planner

Search our weather history database for the weather conditions in past years. The results will help you decide how hot, cold, wet, or windy it might be!

Date:

Astronomy

Sep. 19, 2013 Rise Set
Actual Time 7:03 AM EDT 7:18 PM EDT
Civil Twilight 6:38 AM EDT 7:43 PM EDT
Nautical Twilight 6:08 AM EDT 8:12 PM EDT
Astronomical Twilight 5:38 AM EDT 8:42 PM EDT
Moon 7:18 PM EDT (9/19) 7:08 AM EDT (9/19)
Length of Visible Light 13h 05m
Length of Day
12h 14m
Full, 100% of the Moon is Illuminated
Sep 19
Full
Sep 26
Last Quarter
Oct 4
New
Oct 11
First Quarter
Oct 18
Full

Hourly Weather History & Observations

Time (EDT) Temp. Dew Point Humidity Pressure Visibility Wind Dir Wind Speed Gust Speed Precip Events Conditions
12:52 AM 53.1 °F 51.1 °F 93% 30.20 in 10.0 mi Calm Calm - N/A   Clear
1:52 AM 53.1 °F 50.0 °F 89% 30.19 in 10.0 mi Calm Calm - N/A   Clear
2:52 AM 52.0 °F 50.0 °F 93% 30.17 in 10.0 mi Calm Calm - N/A   Clear
3:52 AM 53.1 °F 50.0 °F 89% 30.17 in 10.0 mi Calm Calm - N/A   Clear
4:52 AM 52.0 °F 50.0 °F 93% 30.17 in 10.0 mi Calm Calm - N/A   Clear
5:52 AM 52.0 °F 50.0 °F 93% 30.17 in 10.0 mi Calm Calm - N/A   Clear
6:52 AM 54.0 °F 52.0 °F 93% 30.19 in 10.0 mi Calm Calm - N/A   Overcast
7:52 AM 57.0 °F 54.0 °F 89% 30.19 in 10.0 mi ENE 3.5 mph - N/A   Overcast
8:52 AM 61.0 °F 55.9 °F 83% 30.19 in 10.0 mi East 4.6 mph - N/A   Overcast
9:52 AM 66.0 °F 55.9 °F 70% 30.21 in 10.0 mi Calm Calm - N/A   Mostly Cloudy
10:52 AM 71.1 °F 55.0 °F 57% 30.20 in 10.0 mi ESE 5.8 mph - N/A   Clear
11:52 AM 75.0 °F 52.0 °F 44% 30.20 in 10.0 mi Calm Calm - N/A   Clear
12:52 PM 78.1 °F 53.1 °F 42% 30.18 in 10.0 mi Variable 4.6 mph - N/A   Partly Cloudy
1:52 PM 78.1 °F 55.0 °F 45% 30.15 in 10.0 mi Variable 3.5 mph - N/A   Overcast
2:52 PM 78.1 °F 55.9 °F 46% 30.13 in 10.0 mi Variable 4.6 mph - N/A   Overcast
3:52 PM 79.0 °F 57.0 °F 47% 30.11 in 10.0 mi Variable 4.6 mph - N/A   Scattered Clouds
4:52 PM 79.0 °F 57.0 °F 47% 30.11 in 10.0 mi NNW 4.6 mph - N/A   Clear
5:52 PM 78.1 °F 57.9 °F 50% 30.11 in 10.0 mi Calm Calm - N/A   Scattered Clouds
6:52 PM 75.9 °F 59.0 °F 56% 30.11 in 10.0 mi WNW 3.5 mph - N/A   Scattered Clouds
7:52 PM 71.1 °F 59.0 °F 66% 30.10 in 10.0 mi NW 4.6 mph - N/A   Partly Cloudy
8:52 PM 68.0 °F 60.1 °F 76% 30.12 in 10.0 mi Calm Calm - N/A   Clear
9:52 PM 64.9 °F 60.1 °F 84% 30.11 in 10.0 mi Calm Calm - N/A   Clear
10:52 PM 64.0 °F 60.1 °F 87% 30.10 in 10.0 mi Calm Calm - N/A   Clear
11:52 PM 64.0 °F 61.0 °F 90% 30.10 in 10.0 mi Calm Calm - N/A   Mostly Cloudy